DW8397 Weather Reports


time (UTC)temp
C
wind
direction
speed
KPH
gust
KPH
rain 1hr
cm
rain 24hr
cm
rain mn
cm
humidity
%
barometer
mb
20260906134527 12 298 0.0 0.0 0.05 0.20 0.15 87 1015.0
20260906133026 12 311 0.0 0.0 0.05 0.20 0.15 87 1014.9
20260906131527 12 209 0.0 0.0 0.05 0.20 0.15 87 1014.8
20260906130024 12 208 0.0 0.0 0.00 0.15 0.10 87 1014.9
20260906124522 11 208 0.0 0.0 0.00 0.15 0.10 87 1014.9
20260906123022 11 208 0.0 0.0 0.00 0.15 0.10 87 1014.8
20260906121521 11 208 0.0 0.0 0.00 0.15 0.10 87 1014.6
20260906120018 11 167 0.0 0.0 0.00 0.15 0.10 87 1014.7
20260906114616 11 167 0.0 0.0 0.00 0.15 0.10 87 1014.6
20260906113017 11 145 0.0 0.0 0.00 0.15 0.10 87 1014.3
20260906111513 11 145 0.0 0.0 0.00 0.15 0.10 87 1014.2
20260906110013 11 145 0.0 0.0 0.00 0.15 0.10 87 1014.0
20260906104508 11 145 0.0 0.0 0.00 0.15 0.10 87 1013.8
20260906103004 11 165 0.0 0.0 0.00 0.15 0.10 87 1013.6
20260906101507 11 166 0.0 0.0 0.00 0.15 0.10 88 1013.4
20260906100001 12 166 0.0 0.0 0.00 0.15 0.10 88 1013.4
20260906094600 12 165 0.0 0.0 0.00 0.15 0.10 87 1013.2
20260906093102 12 165 0.0 0.0 0.00 0.15 0.10 88 1013.1
20260906091556 12 165 0.0 0.0 0.00 0.15 0.10 88 1013.0
20260906090058 12 165 0.0 0.0 0.00 0.15 0.10 87 1012.9
20260906084555 12 165 0.0 0.0 0.00 0.15 0.10 88 1012.8
20260906083054 12 165 0.0 0.0 0.00 0.15 0.10 88 1012.7
20260906081553 12 165 0.0 0.0 0.00 0.15 0.10 88 1012.6
20260906080100 12 165 0.0 0.0 0.00 0.15 0.10 87 1012.8
20260906074551 12 165 0.0 0.0 0.00 0.15 0.10 88 1012.8
20260906073053 12 165 0.0 0.0 0.00 0.15 0.10 88 1012.5
20260906071553 12 165 0.0 0.0 0.03 0.15 0.10 88 1012.6
20260906070054 12 165 0.0 0.0 0.03 0.15 0.10 88 1012.5
20260906064551 12 165 0.0 0.0 0.03 0.15 0.10 88 1012.5
20260906063046 12 165 0.0 0.0 0.05 0.15 0.10 88 1012.5
20260906061545 12 165 0.0 0.0 0.03 0.13 0.08 88 1012.5
20260906060044 12 165 0.0 0.0 0.05 0.13 0.08 88 1012.6
20260906054557 13 165 0.0 0.0 0.08 0.13 0.08 88 1012.7
20260906053042 13 165 0.0 0.0 0.05 0.10 0.05 89 1012.7
20260906051602 13 165 0.0 0.0 0.05 0.10 0.05 89 1012.7
20260906050044 13 165 0.0 0.0 0.00 0.05 0.00 89 1012.8
20260906044548 13 165 0.0 0.0 0.00 0.05 0.00 89 1012.8
20260906043038 13 165 0.0 0.0 0.00 0.05 0.00 89 1012.8
20260906041537 13 165 0.0 0.0 0.00 0.05 0.00 89 1012.7
20260906034533 13 196 0.0 0.0 0.03 0.05 0.05 89 1012.8
20260906033044 13 196 0.0 0.0 0.05 0.05 0.05 89 1012.7
20260906031530 14 191 0.0 0.0 0.05 0.05 0.05 89 1012.6
20260906030029 14 138 0.0 0.0 0.03 0.03 0.03 89 1012.3
20260906024527 15 199 0.0 14.5 0.03 0.03 0.03 88 1012.0
20260906023026 15 143 0.0 16.1 0.00 0.00 0.00 88 1012.2
20260906021526 16 65 3.2 16.1 0.00 0.00 0.00 87 1012.0
20260906020025 16 334 0.0 9.7 0.00 0.00 0.00 87 1011.8
20260906014528 16 30 3.2 14.5 0.00 0.00 0.00 87 1011.7
20260906013028 16 26 3.2 16.1 0.00 0.00 0.00 87 1011.8
20260906011524 16 65 0.0 1.6 0.00 0.00 0.00 88 1011.9
20260906010023 16 355 0.0 0.0 0.00 0.00 0.00 88 1011.8
20260906004521 17 355 0.0 0.0 0.00 0.00 0.00 87 1011.7
20260906003020 17 13 0.0 0.0 0.00 0.00 0.00 87 1011.4
20260906001518 17 329 0.0 9.7 0.00 0.00 0.00 87 1011.3
20260906000019 17 20 0.0 11.3 0.00 0.00 0.00 87 1011.3
20260905234518 17 5 1.6 11.3 0.00 0.00 0.00 86 1011.1
20260905233014 17 333 0.0 0.0 0.00 0.00 0.00 85 1010.9
20260905231518 17 314 0.0 0.0 0.00 0.00 0.00 85 1010.7
20260905230012 17 16 3.2 17.7 0.00 0.00 0.00 84 1010.7
20260905224523 18 323 1.6 11.3 0.00 0.00 0.00 83 1010.5
20260905223010 18 323 0.0 9.7 0.00 0.00 0.00 82 1010.4
20260905221509 18 311 0.0 14.5 0.00 0.00 0.00 81 1010.3
20260905220009 18 61 1.6 9.7 0.00 0.00 0.00 81 1010.4
20260905214508 19 5 6.4 20.9 0.00 0.00 0.00 79 1010.3
20260905213006 19 360 4.8 16.1 0.00 0.00 0.00 79 1010.2
20260905211513 19 21 0.0 16.1 0.00 0.00 0.00 80 1010.0
20260905210007 19 32 9.7 17.7 0.00 0.00 0.00 78 1010.0
20260905204505 19 340 8.0 20.9 0.00 0.00 0.00 78 1010.0
20260905203004 19 338 3.2 11.3 0.00 0.00 0.00 80 1009.7
20260905201504 19 304 3.2 17.7 0.00 0.00 0.00 79 1009.7
20260905200009 20 309 6.4 17.7 0.00 0.00 0.00 78 1009.5
20260905194502 20 306 6.4 16.1 0.00 0.00 0.00 79 1009.7
20260905193002 20 24 1.6 12.9 0.00 0.00 0.00 78 1009.7
20260905191502 20 30 3.2 9.7 0.00 0.00 0.00 78 1009.7
20260905190104 20 330 3.2 14.5 0.00 0.00 0.00 79 1009.7
20260905184600 19 266 0.0 12.9 0.00 0.00 0.00 80 1009.6
20260905183056 20 300 1.6 20.9 0.00 0.00 0.00 78 1009.6
20260905181556 19 321 0.0 14.5 0.00 0.00 0.00 80 1009.5
20260905180103 19 287 4.8 12.9 0.00 0.00 0.00 81 1009.6
20260905174555 19 313 3.2 14.5 0.00 0.00 0.00 80 1009.7
20260905173111 20 350 4.8 12.9 0.00 0.00 0.00 78 1009.7
20260905171554 20 25 0.0 9.7 0.00 0.00 0.00 80 1009.6
20260905170108 18 314 1.6 11.3 0.00 0.00 0.00 79 1009.6
20260905164600 19 355 3.2 14.5 0.00 0.00 0.00 78 1009.6
20260905163050 19 5 6.4 14.5 0.00 0.00 0.00 79 1009.6
20260905161604 19 325 3.2 12.9 0.00 0.00 0.00 80 1009.6
20260905160049 19 355 1.6 17.7 0.00 0.00 0.00 79 1009.8
20260905154548 19 317 4.8 16.1 0.00 0.00 0.00 81 1009.8
20260905153045 18 333 0.0 14.5 0.00 0.00 0.00 80 1009.8
20260905151545 18 350 0.0 6.4 0.00 0.00 0.00 79 1009.8
20260905150044 18 317 0.0 0.0 0.00 0.00 0.00 79 1009.7
20260905144542 18 340 0.0 0.0 0.00 0.00 0.00 80 1009.7
20260905143040 18 24 0.0 0.0 0.00 0.00 0.00 82 1009.7
20260905141537 17 318 0.0 1.6 0.00 0.00 0.00 83 1009.9
20260905140037 18 38 0.0 14.5 0.00 0.00 0.00 85 1009.9